Regional Weather Roundup
Issued by NWS

Home | Current Version | Previous Version | Graphics & Text | Print | Product List | Glossary On
Versions: 1 2 3 4 5 6 7 8 9 10 11 12 13 14 15 16 17 18 19 20 21 22 23 24 25 26 27 28 29 30 31 32 33 34 35 36 37 38 39 40 41 42 43 44 45 46 47 48 49 50
000
ASUS43 KLOT 300806
RWRIL

ILLINOIS REGIONAL WEATHER ROUNDUP
NATIONAL WEATHER SERVICE CHICAGO/ROMEOVILLE IL
300 AM CDT TUE SEP 30 2014

NOTE: "FAIR" INDICATES FEW OR NO CLOUDS BELOW 12,000 FEET WITH NO
SIGNIFICANT WEATHER AND/OR OBSTRUCTIONS TO VISIBILITY.

* THESE STATIONS ARE NOT UNDER NWS QUALITY CONTROL. THEY ALSO MAY NOT
  REPORT WEATHER SUCH AS PRECIPITATION OR FOG.

ILZ001-002-007-009-015-016-024-300900-
NORTHWEST ILLINOIS

CITY           SKY/WX    TMP DP  RH WIND       PRES   REMARKS
MOLINE         NOT AVBL
SAVANNA*       CLOUDY    54  48  81 NE8       30.04S
$$

ILZ003-004-008-010-011-017-018-300900-
NORTH CENTRAL ILLINOIS

CITY           SKY/WX    TMP DP  RH WIND       PRES   REMARKS
ROCKFORD       CLOUDY    52  46  80 NE14      30.08R
FREEPORT*      CLOUDY    51  47  86 NE10      30.07S
ROCHELLE*      CLOUDY    52  48  87 NE12      30.05R
DE KALB*       CLOUDY    49  45  84 NE10      30.05S
PERU*          CLOUDY    56  52  85 NE6       30.03R
$$

ILZ005-006-012>014-019>023-300900-
NORTHEAST ILLINOIS

CITY           SKY/WX    TMP DP  RH WIND       PRES   REMARKS
CHICAGO-OHARE  CLOUDY    52  46  80 N15       30.04R
CHICAGO-MIDWAY MOCLDY    56  49  77 NE15      30.02S
AURORA         CLOUDY    53  47  79 NE12      30.04R
LANSING*       CLOUDY    55  50  83 N8G21     30.01S
JOLIET*        CLOUDY    54  50  85 NE9       30.02S
WAUKEGAN       LGT RAIN  48  45  89 N7G21     30.06R FOG
DUPAGE AIRPORT CLOUDY    53  47  79 NE13      30.03R
KANKAKEE*      CLOUDY    56  53  88 N7        30.01S
WHEELING       CLOUDY    53  46  77 N12G20    30.06R
MORRIS*        CLOUDY    55  52  90 NE5       30.01S
ROMEOVILLE*    CLOUDY    54  49  83 NE14      30.02S
NORTHERLY ISL    N/A     53  49  86 N16         N/A
$$

LMZ740>746-300900-
SOUTHERN LAKE MICHIGAN

STATION/POSITION SKY/WX   TEMP    WIND        PRES    VSBY  WAVE
                          AIR SEA DIR/SP/G                  HT/PER
                          (F)     (DEG/KT/KT) (MB)    (MI)  (FT/S)
SOUTHERN BUOY              52 62  350/ 17/ 21 1016.8R         7/ 7
WAUKEGAN HARBOR                   360/ 12/ 17   N/A
HARRISON CRIB              53      10/ 21/ 26   N/A
BURNHAM HARBOR             53      10/ 14/ 19   N/A
CALUMET HARBOR             54     350/ 12/ 18 1015.6S
MICHIGAN CITY              55     350/ 22/ 26   N/A
MICHIGAN CITY 6N           56 65   20/ 16/ 25   N/A           8/ 2
ST. JOSEPH                 54 63  360/ 17/ 23   N/A           7/ 2
$$

ILZ025>027-034>036-040-047-049-050-058-095>099-300900-
WEST-CENTRAL ILLINOIS

CITY           SKY/WX    TMP DP  RH WIND       PRES   REMARKS
QUINCY         CLEAR     62  57  83 S3        29.96S
GALESBURG*     CLOUDY    57  55  92 NE12      30.00R
MACOMB*        CLEAR     60  58  91 NE7       30.00R
JACKSONVILLE*  CLEAR     63  58  86 CALM      29.97S
PITTSFIELD*    CLEAR     60  56  87 W3        29.97F
$$

ILZ028>032-037-038-041>044-048-051>054-059>061-300900-
CENTRAL ILLINOIS

CITY           SKY/WX    TMP DP  RH WIND       PRES   REMARKS
PONTIAC        CLOUDY    61  55  82 NE7       30.00S
DECATUR        CLEAR     60  57  89 NE3       29.96R
PEORIA         CLOUDY    61  56  83 NE15      29.99R HAZE
LACON*         CLOUDY    56  52  86 NE6       30.00S
LINCOLN*       CLEAR     61  57  87 N6        29.95R
SPRINGFIELD    CLEAR     58  55  90 W3        29.95S
TAYLORVILLE    CLEAR     55  54  94 CALM      29.95S
$$

ILZ033-039-045-046-055>057-062-063-300900-
EAST-CENTRAL ILLINOIS

CITY           SKY/WX    TMP DP  RH WIND       PRES   REMARKS
CHAMPAIGN      FOG       61  59  94 NE9       29.97R VSB 1
DANVILLE*      CLOUDY    58  57  96 NE10      29.95S FOG
RANTOUL*       CLOUDY    60  56  87 N10       29.99R HAZE
MATTOON        CLEAR     62  56  80 CALM      29.93F
PARIS*         CLEAR     59  56  89 CALM      29.95R
$$

ILZ079-100>102-300900-
SOUTHWEST ILLINOIS

CITY           SKY/WX    TMP DP  RH WIND       PRES   REMARKS
ALTON          CLEAR     57  55  94 CALM      29.96S
BELLEVILLE     FOG       57  57 100 SW2       29.95S VSB 1/2
CAHOKIA*       CLEAR     58  57  97 CALM      29.96S
SPARTA*        CLEAR     61  57  86 CALM      29.96S
$$

ILZ064>066-069>071-074>076-080>082-084>086-088>090-092>094-300900-
SOUTH-CENTRAL ILLINOIS

CITY           SKY/WX    TMP DP  RH WIND       PRES   REMARKS
CARBONDALE     FOG       55  53  93 CALM      29.95S VSB 1
CAIRO*           N/A     56  54  92 CALM      29.94S FOG
EFFINGHAM*     CLEAR     57  55  91 CALM      29.95S
MARION         FOG       57  57 100 CALM      29.95F VSB 3/4
CENTRALIA*     CLEAR     56  53  89 CALM      29.95S
SALEM*         CLEAR     60  59  95 CALM      29.95F
METROPOLIS*    CLEAR     55  55 100 CALM      29.93F
$$

ILZ067-068-072-073-078-083-087-091-300900-
SOUTHEAST ILLINOIS

CITY           SKY/WX    TMP DP  RH WIND       PRES   REMARKS
LAWRENCEVILLE  CLEAR     57  56  96 NW3       29.94S FOG
FLORA*         CLEAR     56  55  95 CALM      29.95S
FAIRFIELD*     CLEAR     55  54  94 CALM      29.94F
HARRISBURG*    CLEAR     56  56 100 CALM      29.95F FOG
ROBINSON*      CLEAR     55  54  96 CALM      29.94F
CARMI*         CLEAR     56  56  99 CALM      29.94S FOG
$$

ABBREVIATIONS USED IN REMARKS
   TC - TEMPERATURE IN CELSIUS
  WCI - WIND CHILL INDEX
   HX - HEAT INDEX
  VSB - VISIBILITY
$$



USA.gov is the U.S. government's official web portal to all federal, state and local government web resources and services.